Terminal Aerodrome Forecast
Issued by NWS

Home | Current Version | Previous Version | Text Only | Print | Product List | Glossary On
Versions: 1 2 3 4 5 6 7 8 9 10 11 12 13 14 15 16 17 18 19 20 21 22 23 24 25 26
000
FTUS45 KSLC 142329
TAFBCE
TAF
KBCE 142329Z 1500/1524 VRB05KT P6SM SCT120
     FM150300 27005KT P6SM SCT120
     FM151800 12008KT P6SM SCT100 BKN120=

USA.gov is the U.S. government's official web portal to all federal, state and local government web resources and services.